[[{"header":{"parameterUnit":"m.s-1","parameterCategory":1,"la1":30.2991,"la2":30.254,"lo1":-89.0895,"lo2":-89.0444,"dy":0.0017,"dx":0.0017,"nx":28,"ny":28,"refTime":"2025-04-03T21:00:00:Z","depth":0,"parameterNumber":2,"parameterNumberName":"U-component_of_WINDS"},"data":[0,0,0,0,0,0,0,0,0,0,0,0,0,0,0,0,0,0,0,0,0,0,0,0,0,0,0,0,0,0,0,0,0,0,0,0,0,0,0,0,0,0,0,0,0,0,0,0,0,0,0,0,0,0,0,0,0,0,-3.5743,-3.5744,0,-3.5826,-3.5827,-3.5828,-3.5831,-3.583,-3.5829,-3.5828,-3.5914,-3.5917,-3.592,0,0,0,0,0,0,0,0,0,0,0,0,0,-3.5589,-3.5592,-3.5743,-3.5744,-3.5745,-3.5826,-3.5827,-3.5828,-3.5831,-3.583,-3.5829,-3.5828,-3.5913,-3.5917,-3.5921,0,0,0,0,0,0,0,0,0,0,0,0,0,-3.5662,-3.5593,-3.5743,-3.5756,-3.5758,-3.5825,-3.5827,-3.5828,-3.5832,-3.583,-3.5829,-3.5827,-3.5912,-3.5916,-3.5921,-3.598,0,0,-3.5936,-3.5938,0,0,0,0,0,0,0,0,-3.5658,-3.5668,-3.5753,-3.5756,-3.5758,-3.5817,-3.5804,-3.5879,-3.5832,-3.5804,-3.5828,-3.5826,-3.5883,-3.589,-3.5909,-3.5984,-3.5988,-3.5936,-3.5939,-3.5941,-3.5943,0,0,0,0,0,0,0,-3.5653,-3.5665,-3.5776,-3.5755,-3.5757,-3.5759,-3.5768,-3.5818,-3.5851,-3.5806,-3.5807,-3.5816,-3.5884,-3.5904,-3.5911,-3.5989,-3.5936,-3.594,-3.5943,-3.5945,-3.6118,-3.612,0,0,0,0,0,0,-3.5645,-3.566,-3.5773,-3.5778,-3.5703,-3.5763,-3.5773,-3.5799,-3.585,-3.5856,-3.5817,-3.5816,-3.5897,-3.5905,-3.5914,-3.5986,-3.5941,-3.5946,-3.5948,-3.6116,-3.6119,-3.612,0,0,0,0,0,0,-3.5642,-3.5655,-3.577,-3.5719,-3.5734,-3.5767,-3.5797,-3.5802,-3.5822,-3.5859,-3.5865,-3.5832,-3.5896,-3.5907,-3.5964,-3.5989,-3.5948,-3.5952,-3.6114,-3.6117,-3.6119,-3.6131,0,0,0,0,0,0,-3.5638,-3.5654,-3.5676,-3.572,-3.5737,-3.5818,-3.5799,-3.5804,-3.583,-3.5829,-3.5874,-3.588,-3.5895,-3.5957,-3.5969,-3.5995,-3.5956,-3.6112,-3.6116,-3.6119,-3.6129,-3.6134,-3.6138,0,0,0,0,0,-3.5632,-3.5677,-3.5678,-3.5691,-3.5765,-3.5819,-3.5829,-3.5846,-3.5832,-3.5855,-3.5879,-3.5879,-3.5985,-3.5962,-3.5976,-3.6004,-3.6111,-3.6115,-3.6118,-3.6127,-3.6133,-3.6138,0,0,0,0,0,0,-3.5636,-3.5683,-3.5684,-3.5744,-3.5778,-3.582,-3.5849,-3.5852,-3.589,-3.5888,-3.5907,-3.5917,-3.5973,-3.5995,-3.5969,-3.6064,-3.6046,-3.6053,-3.6048,-3.6054,-3.6059,-3.6052,-3.596,0,0,0,0,0,-3.5643,-3.5683,-3.5722,-3.5771,-3.5788,-3.5816,-3.584,-3.585,-3.5886,-3.59,-3.5928,-3.5963,-3.6004,-3.6031,-3.6071,-3.6133,-3.6142,-3.6159,-3.6164,-3.6167,-3.6172,-3.6206,-3.6214,-3.6133,-3.6133,-3.6133,0,0,-3.566,-3.5691,-3.5714,-3.5773,-3.58,-3.584,-3.5828,-3.5871,-3.5901,-3.5907,-3.5961,-3.5983,-3.6024,-3.6083,-3.6111,-3.6103,-3.6197,-3.6172,-3.6175,-3.6178,-3.6211,-3.6219,-3.6226,-3.6136,-3.6135,-3.6135,0,0,-3.571,-3.5738,-3.5781,-3.5809,-3.585,-3.5868,-3.5879,-3.5921,-3.5935,-3.5991,-3.5996,-3.6033,-3.6103,-3.6132,-3.6155,-3.6218,-3.6219,-3.6231,-3.6255,-3.6288,-3.6294,-3.63,-3.6321,-3.6329,-3.6236,-3.6236,-3.6236,0,-3.5725,-3.5786,-3.5803,-3.5847,-3.5872,-3.5879,-3.5924,-3.595,-3.6002,-3.602,-3.6011,-3.61,-3.6127,-3.6193,-3.6208,-3.6228,-3.624,-3.6225,-3.6292,-3.6298,-3.6304,-3.6324,-3.6332,-3.6237,-3.6237,-3.6237,-3.6237,0,-3.5802,-3.5844,-3.5875,-3.5925,-3.5954,-3.5998,-3.6023,-3.605,-3.6059,-3.6078,-3.6135,-3.6168,-3.6215,-3.6232,-3.6241,-3.63,-3.6293,-3.6288,-3.627,-3.6312,-3.6331,-3.634,-3.6239,-3.6238,-3.6238,-3.6238,0,0,-3.5855,-3.5915,-3.5925,-3.5948,-3.5995,-3.6028,-3.6073,-3.6118,-3.6141,-3.6178,-3.6215,-3.6276,-3.6271,-3.6298,-3.631,-3.6339,-3.6386,-3.633,-3.6332,-3.6338,-3.6452,-3.6454,-3.6463,-3.6387,-3.6389,-3.639,-3.6448,0,-3.5909,-3.5988,-3.6005,-3.6073,-3.6112,-3.612,-3.6158,-3.6191,-3.6211,-3.6248,-3.627,-3.6312,-3.6303,-3.632,-3.6349,-3.6374,-3.6408,-3.637,-3.6422,-3.6424,-3.641,-3.6474,-3.6476,-3.6529,-3.6456,-3.6457,-3.6458,0,-3.5983,-3.602,-3.6091,-3.6133,-3.615,-3.6184,-3.6227,-3.6263,-3.6301,-3.6313,-3.6344,-3.6353,-3.64,-3.6381,-3.6446,-3.642,-3.6443,-3.6458,-3.6461,-3.6464,-3.6442,-3.6478,-3.6546,-3.6554,-3.6471,-3.647,-3.6469,0,-3.6012,-3.6081,-3.6132,-3.6152,-3.6202,-3.6226,-3.6248,-3.6284,-3.6311,-3.6349,-3.6366,-3.641,-3.6434,-3.6468,-3.6489,-3.6473,-3.6552,-3.6535,-3.6563,-3.6563,-3.6578,-3.6576,-3.6649,-3.6595,-3.6595,-3.6595,-3.6595,0,-3.607,-3.6113,-3.6146,-3.6178,-3.6226,-3.6247,-3.6295,-3.6317,-3.635,-3.6386,-3.6396,-3.643,-3.6456,-3.6494,-3.6511,-3.6562,-3.6573,-3.6585,-3.6588,-3.6583,-3.6581,-3.6596,-3.6593,-3.6597,-3.6597,-3.6596,-3.6596,0,-3.6111,-3.6135,-3.6191,-3.6234,-3.6246,-3.628,-3.6317,-3.6348,-3.6369,-3.6414,-3.6426,-3.6459,-3.6504,-3.6529,-3.6586,-3.6597,-3.6654,-3.6656,-3.664,-3.6641,-3.6668,-3.6664,-3.6752,-3.6764,-3.6703,-3.6704,-3.6705,0,-3.6145,-3.6178,-3.6225,-3.6249,-3.6272,-3.6312,-3.6339,-3.6361,-3.6388,-3.6435,-3.646,-3.6506,-3.6543,-3.6615,-3.6644,-3.6687,-3.669,-3.6718,-3.6697,-3.669,-3.6689,-3.6686,-3.6689,-3.6721,-3.6722,-3.6722,-3.6722,0,-3.6203,-3.6214,-3.6252,-3.6294,-3.6326,-3.636,-3.6395,-3.6415,-3.6443,-3.6473,-3.6519,-3.6548,-3.6606,-3.6651,-3.6697,-3.6721,-3.6726,-3.6729,-3.6738,-3.6732,-3.672,-3.6725,-3.6649,-3.6727,-3.6726,-3.6726,-3.6726,-3.6725,-3.6241,-3.6271,-3.6308,-3.635,-3.6378,-3.641,-3.6441,-3.6466,-3.6504,-3.6552,-3.6564,-3.6612,-3.665,-3.6712,-3.6737,-3.6776,-3.677,-3.6783,-3.6786,-3.6788,-3.6789,-3.6716,-3.6784,-3.6784,-3.6784,-3.6784,-3.6784,0,-3.6299,-3.6323,-3.6362,-3.6409,-3.6442,-3.6445,-3.6483,-3.6511,-3.6553,-3.6588,-3.6624,-3.6677,-3.6721,-3.6754,-3.6799,-3.6824,-3.6827,-3.6834,-3.6832,-3.6837,-3.6791,-3.6779,-3.6831,-3.6831,-3.6831,-3.6831,-3.6831,-3.6831,-3.6332,-3.6382,-3.6397,-3.6461,-3.6486,-3.6533,-3.6554,-3.6584,-3.6612,-3.667,-3.6706,-3.6727,-3.6762,-3.6809,-3.685,-3.6859,-3.6874,-3.6881,-3.689,-3.6846,-3.6841,-3.6836,-3.6824,-3.6884,-3.6884,-3.6932,-3.6932,-3.6933]},{"header":{"parameterUnit":"m.s-1","parameterCategory":1,"la1":30.2991,"la2":30.254,"lo1":-89.0895,"lo2":-89.0444,"dy":0.0017,"dx":0.0017,"nx":28,"ny":28,"refTime":"2025-04-03T21:00:00:Z","depth":0,"parameterNumber":3,"parameterNumberName":"V-component_of_WINDS"},"data":[0,0,0,0,0,0,0,0,0,0,0,0,0,0,0,0,0,0,0,0,0,0,0,0,0,0,0,0,0,0,0,0,0,0,0,0,0,0,0,0,0,0,0,0,0,0,0,0,0,0,0,0,0,0,0,0,0,0,4.223,4.223,0,4.2294,4.2295,4.2296,4.2275,4.2274,4.2273,4.2271,4.2338,4.2341,4.2344,0,0,0,0,0,0,0,0,0,0,0,0,0,4.2091,4.2094,4.2229,4.223,4.2231,4.2294,4.2295,4.2296,4.2276,4.2274,4.2272,4.2271,4.2337,4.2341,4.2345,0,0,0,0,0,0,0,0,0,0,0,0,0,4.2153,4.2095,4.2229,4.2229,4.2229,4.2294,4.2295,4.2296,4.2276,4.2274,4.2272,4.227,4.2336,4.2341,4.2345,4.2415,0,0,4.2359,4.2361,0,0,0,0,0,0,0,0,4.215,4.2158,4.2228,4.2229,4.223,4.2275,4.2271,4.2336,4.2276,4.2258,4.2271,4.2269,4.2319,4.2325,4.2341,4.2418,4.2421,4.2359,4.2362,4.2364,4.2366,0,0,0,0,0,0,0,4.2146,4.2156,4.2255,4.2229,4.223,4.2226,4.2233,4.2283,4.2299,4.226,4.2258,4.2266,4.2319,4.2337,4.2343,4.2422,4.2359,4.2363,4.2366,4.2368,4.2562,4.2564,0,0,0,0,0,0,4.214,4.2152,4.2253,4.2257,4.2184,4.223,4.2237,4.2262,4.2299,4.2302,4.2268,4.2265,4.233,4.2337,4.2345,4.2431,4.2364,4.2369,4.2371,4.256,4.2563,4.2565,0,0,0,0,0,0,4.2138,4.215,4.225,4.2204,4.2217,4.2235,4.2263,4.2265,4.2283,4.2305,4.2308,4.2283,4.2329,4.2339,4.2398,4.2433,4.2371,4.2375,4.2557,4.2561,4.2564,4.2603,0,0,0,0,0,0,4.2134,4.2149,4.2174,4.2205,4.2219,4.2302,4.2265,4.2267,4.2291,4.2287,4.232,4.2324,4.2328,4.2392,4.2403,4.2439,4.2378,4.2554,4.2559,4.2563,4.2599,4.2608,4.2615,0,0,0,0,0,4.2129,4.2182,4.2176,4.2188,4.2252,4.2304,4.2312,4.2316,4.2293,4.232,4.2335,4.2323,4.2428,4.2398,4.241,4.2448,4.2552,4.2557,4.2562,4.2595,4.2606,4.2615,0,0,0,0,0,0,4.2155,4.2186,4.2179,4.2244,4.2272,4.23,4.2334,4.2326,4.2361,4.2357,4.236,4.2368,4.243,4.2444,4.2411,4.2519,4.2486,4.2495,4.2507,4.2517,4.2526,4.2521,4.2382,0,0,0,0,0,4.2168,4.2207,4.2232,4.2287,4.2302,4.2316,4.2338,4.2339,4.2368,4.2379,4.2398,4.2427,4.2467,4.2493,4.253,4.2601,4.2609,4.2633,4.2641,4.2648,4.2655,4.2697,4.2709,4.2583,4.2583,4.2583,0,0,4.2196,4.2218,4.2242,4.2293,4.2314,4.2356,4.2325,4.237,4.2401,4.2386,4.2444,4.2459,4.2492,4.2558,4.2588,4.2573,4.2692,4.2655,4.266,4.2664,4.2704,4.2716,4.2727,4.2587,4.2586,4.2585,0,0,4.2268,4.2288,4.2337,4.236,4.2393,4.2402,4.2414,4.2445,4.2455,4.2513,4.2503,4.2541,4.2609,4.2633,4.2655,4.274,4.2731,4.2752,4.2795,4.2836,4.2846,4.2855,4.2888,4.2899,4.2759,4.2759,4.2759,0,4.2299,4.2361,4.2363,4.241,4.2434,4.2422,4.2474,4.2495,4.2539,4.2557,4.2538,4.2625,4.2646,4.272,4.2741,4.2757,4.2773,4.2749,4.2844,4.2853,4.2861,4.2893,4.2905,4.2762,4.2761,4.2761,4.2761,0,4.2398,4.2441,4.2477,4.2521,4.2549,4.2597,4.2609,4.2637,4.2636,4.2648,4.2709,4.2734,4.2778,4.2795,4.2794,4.287,4.286,4.2843,4.281,4.2876,4.2906,4.2918,4.2765,4.2764,4.2764,4.2763,0,0,4.2488,4.2534,4.2547,4.2568,4.2605,4.2639,4.2689,4.2732,4.2757,4.2788,4.2831,4.289,4.2876,4.29,4.2902,4.2937,4.3007,4.2917,4.2917,4.2935,4.3095,4.3109,4.3123,4.3001,4.3003,4.3005,4.3093,0,4.2565,4.2651,4.2657,4.2735,4.2777,4.2768,4.2811,4.2839,4.2853,4.2891,4.2905,4.2948,4.2924,4.2939,4.2974,4.2991,4.304,4.2985,4.3043,4.3045,4.3036,4.3138,4.3152,4.3234,4.3105,4.3107,4.3108,0,4.2666,4.2702,4.2785,4.2819,4.2837,4.2875,4.2917,4.2953,4.2986,4.2993,4.3022,4.302,4.3072,4.3038,4.3111,4.3074,4.3098,4.311,4.3114,4.3121,4.3081,4.315,4.326,4.3274,4.3126,4.3125,4.3123,0,4.2727,4.2795,4.2855,4.2873,4.2913,4.2941,4.2959,4.299,4.3017,4.3054,4.3072,4.3114,4.3137,4.3171,4.3181,4.3154,4.3256,4.3221,4.3265,4.3265,4.3288,4.3286,4.3406,4.33,4.33,4.33,4.3299,0,4.2814,4.2865,4.2883,4.2919,4.2978,4.2985,4.3043,4.3059,4.3088,4.3129,4.3123,4.3162,4.3172,4.3213,4.3221,4.3283,4.3293,4.3302,4.3304,4.3303,4.3303,4.332,4.3316,4.3303,4.3302,4.3302,4.3301,0,4.2891,4.2904,4.2969,4.3003,4.3013,4.3055,4.3084,4.3121,4.3133,4.3186,4.3199,4.3219,4.3268,4.3281,4.3339,4.3345,4.3418,4.3413,4.3407,4.3408,4.3452,4.3449,4.3589,4.3609,4.3488,4.3489,4.349,0,4.2946,4.2986,4.3025,4.3052,4.3072,4.3116,4.3144,4.3152,4.3182,4.3224,4.3256,4.3304,4.3343,4.3421,4.3442,4.3487,4.3485,4.3531,4.3492,4.3492,4.3489,4.3488,4.3493,4.3539,4.3541,4.3542,4.3542,0,4.3044,4.305,4.309,4.3134,4.3167,4.3202,4.3235,4.3258,4.3271,4.3305,4.3355,4.3386,4.3446,4.3495,4.3541,4.3561,4.3555,4.3555,4.3568,4.3569,4.3565,4.357,4.343,4.3552,4.3551,4.355,4.3549,4.3549,4.3114,4.3151,4.3184,4.323,4.3256,4.3288,4.3325,4.3343,4.3385,4.3435,4.3438,4.3493,4.3528,4.3589,4.3612,4.3656,4.3643,4.3661,4.3666,4.3671,4.3676,4.3556,4.3664,4.3664,4.3664,4.3664,4.3664,0,4.3214,4.3236,4.3278,4.3326,4.3362,4.3353,4.339,4.3422,4.3471,4.3503,4.3543,4.3602,4.365,4.3675,4.3724,4.3754,4.3753,4.3767,4.3766,4.3771,4.3684,4.3669,4.3767,4.3767,4.3767,4.3767,4.3767,4.3767,4.3271,4.3333,4.3342,4.3418,4.344,4.3494,4.3517,4.3547,4.3573,4.364,4.368,4.3696,4.3727,4.3778,4.3822,4.3829,4.3848,4.3864,4.3869,4.3787,4.3777,4.3767,4.3753,4.3867,4.3867,4.3953,4.3954,4.3954]}]]